GW0751 Weather Reports


time (UTC)temp
C
wind
direction
speed
KPH
gust
KPH
rain 1hr
cm
rain 24hr
cm
rain mn
cm
humidity
%
barometer
mb
20260903023205 15 248 1.6 1.6 0.00 0.00 1.68 83 1015.6
20260903022645 16 248 4.8 4.8 0.00 0.00 1.68 82 1015.7
20260903022130 16 225 0.0 0.0 0.00 0.00 1.68 81 1015.7
20260903021050 16 293 3.2 3.2 0.00 0.00 1.68 80 1015.7
20260903020015 16 225 4.8 4.8 0.00 0.00 1.68 79 1015.7
20260903015455 16 203 6.4 6.4 0.00 0.00 1.68 79 1015.7
20260903014935 16 113 3.2 3.2 0.00 0.00 1.68 78 1015.8
20260903014415 16 158 6.4 6.4 0.00 0.00 1.68 78 1015.8
20260903013900 17 270 4.8 4.8 0.00 0.00 1.68 77 1015.8
20260903013340 17 248 8.0 8.0 0.00 0.00 1.68 77 1015.8
20260903012820 17 225 8.0 8.0 0.00 0.00 1.68 76 1015.8
20260903012300 17 270 6.4 6.4 0.00 0.00 1.68 75 1015.8
20260903011800 17 270 4.8 4.8 0.00 0.00 1.68 74 1016.0
20260903011245 18 203 8.0 8.0 0.00 0.00 1.68 73 1016.0
20260903010741 18 293 6.4 6.4 0.00 0.00 1.68 72 1016.0
20260903010205 18 270 8.0 8.0 0.00 0.00 1.68 71 1016.0
20260903005645 19 225 9.7 9.7 0.00 0.00 1.68 68 1016.0
20260903005125 20 203 6.4 6.4 0.00 0.00 1.68 68 1016.0
20260903004611 20 180 8.0 8.0 0.00 0.00 1.68 66 1016.0
20260903004051 21 225 6.4 6.4 0.00 0.00 1.68 64 1015.8
20260903003530 21 203 8.0 8.0 0.00 0.00 1.68 64 1015.8
20260903003010 21 225 8.0 8.0 0.00 0.00 1.68 64 1015.8
20260903002455 22 248 8.0 8.0 0.00 0.00 1.68 63 1015.8
20260903001935 22 248 8.0 8.0 0.00 0.00 1.68 62 1015.8
20260903000855 22 203 8.0 8.0 0.00 0.00 1.68 62 1016.0
20260903000335 23 270 8.0 8.0 0.00 0.00 1.68 61 1016.0
20260902235300 23 203 8.0 8.0 0.00 0.00 1.68 62 1016.0
20260902234740 23 203 8.0 8.0 0.00 0.00 1.68 59 1016.0
20260902234220 24 203 8.0 8.0 0.00 0.00 1.68 58 1016.0
20260902233705 25 225 4.8 4.8 0.00 0.00 1.68 58 1016.0
20260902233146 25 180 6.4 6.4 0.00 0.00 1.68 58 1016.0
20260902232625 25 225 9.7 9.7 0.00 0.00 1.68 57 1016.2
20260902232105 25 203 4.8 4.8 0.00 0.00 1.68 59 1016.2
20260902231550 25 203 6.4 6.4 0.00 0.00 1.68 59 1016.4
20260902231030 25 90 6.4 6.4 0.00 0.00 1.68 59 1016.4
20260902225936 23 248 6.4 6.4 0.00 0.00 1.68 61 1016.5
20260902225415 23 203 4.8 4.8 0.00 0.00 1.68 62 1016.5
20260902224855 23 270 6.4 6.4 0.00 0.00 1.68 62 1016.5
20260902224335 23 225 6.4 6.4 0.00 0.00 1.68 61 1016.5
20260902222546 24 225 6.4 6.4 0.00 0.00 1.68 60 1016.5
20260902221300 25 203 8.0 8.0 0.00 0.00 1.68 58 1016.5
20260902220740 24 203 6.4 6.4 0.00 0.00 1.68 61 1016.5
20260902220221 25 203 8.0 8.0 0.00 0.00 1.68 59 1016.5
20260902215646 25 270 8.0 8.0 0.00 0.00 1.68 61 1016.5
20260902214545 23 203 8.0 8.0 0.00 0.00 1.68 62 1016.7
20260902213431 23 248 6.4 6.4 0.00 0.00 1.68 62 1016.7
20260902212916 23 225 6.4 6.4 0.00 0.00 1.68 62 1016.7
20260902212356 23 203 6.4 6.4 0.00 0.00 1.68 62 1016.7
20260902211836 23 203 4.8 4.8 0.00 0.00 1.68 62 1016.7
20260902211316 23 225 4.8 4.8 0.00 0.00 1.68 63 1016.7
20260902210816 23 248 8.0 8.0 0.00 0.00 1.68 63 1016.7
20260902205740 22 203 6.4 6.4 0.00 0.00 1.68 65 1016.7
20260902205220 22 270 9.7 9.7 0.00 0.00 1.68 64 1016.9
20260902204701 23 270 4.8 4.8 0.00 0.00 1.68 64 1016.9
20260902204045 23 270 6.4 6.4 0.00 0.00 1.68 62 1016.9
20260902203531 23 293 4.8 4.8 0.00 0.00 1.68 61 1016.9
20260902203025 23 225 4.8 4.8 0.00 0.00 1.68 64 1016.9
20260902202511 23 293 3.2 3.2 0.00 0.00 1.68 65 1017.0
20260902201951 23 248 4.8 4.8 0.00 0.00 1.68 65 1017.0
20260902201431 23 180 4.8 4.8 0.00 0.00 1.68 65 1017.0
20260902200911 23 225 4.8 4.8 0.00 0.00 1.68 66 1017.0
20260902195836 23 225 6.4 6.4 0.00 0.00 1.68 66 1017.2
20260902195315 22 225 4.8 4.8 0.00 0.00 1.68 68 1017.3
20260902194816 22 180 4.8 4.8 0.00 0.00 1.68 66 1017.3
20260902194256 22 293 4.8 4.8 0.00 0.00 1.68 68 1017.3
20260902193741 22 180 4.8 4.8 0.00 0.00 1.68 67 1017.3
20260902193220 21 293 4.8 4.8 0.00 0.00 1.68 68 1017.3
20260902192701 21 248 4.8 4.8 0.00 0.00 1.68 69 1017.2
20260902192141 21 248 6.4 6.4 0.00 0.00 1.68 68 1017.2
20260902191642 21 225 4.8 4.8 0.00 0.00 1.68 69 1017.3
20260902191126 20 90 6.4 6.4 0.00 0.00 1.68 71 1017.3
20260902190606 20 203 4.8 4.8 0.00 0.00 1.68 72 1017.4
20260902190046 20 180 3.2 3.2 0.00 0.00 1.68 72 1017.4
20260902185526 20 203 4.8 4.8 0.00 0.00 1.68 71 1017.4
20260902185011 21 270 6.4 6.4 0.00 0.00 1.68 70 1017.4
20260902184451 22 248 6.4 6.4 0.00 0.00 1.68 67 1017.4
20260902183931 22 225 4.8 4.8 0.00 0.00 1.68 67 1017.3
20260902183411 22 180 6.4 6.4 0.00 0.00 1.68 68 1017.3
20260902182856 22 203 4.8 4.8 0.00 0.00 1.68 71 1017.2
20260902182336 20 180 8.0 8.0 0.03 0.00 1.68 72 1017.2
20260902181816 21 270 6.4 6.4 0.03 0.00 1.68 71 1017.1
20260902181256 21 270 6.4 6.4 0.03 0.00 1.68 72 1017.1
20260902180741 21 270 6.4 6.4 0.03 0.00 1.68 72 1017.1
20260902180221 22 248 9.7 9.7 0.03 0.00 1.68 71 1017.0
20260902175140 20 180 4.8 4.8 0.03 0.00 1.68 77 1016.9
20260902174626 20 293 6.4 6.4 0.03 0.00 1.68 77 1016.9
20260902174121 20 225 3.2 3.2 0.03 0.00 1.68 78 1016.7
20260902173606 20 225 4.8 4.8 0.03 0.00 1.68 79 1016.7
20260902173046 19 113 0.0 0.0 0.03 0.00 1.68 84 1016.7
20260902172526 18 158 0.0 0.0 0.03 0.00 1.65 83 1016.7
20260902170911 17 180 4.8 4.8 0.03 0.00 1.65 87 1016.5
20260902170351 17 248 1.6 1.6 0.03 0.00 1.65 89 1016.5
20260902165836 17 248 4.8 4.8 0.03 0.00 1.65 90 1016.5
20260902164756 16 203 1.6 1.6 0.03 0.00 1.65 90 1016.2
20260902164237 17 225 0.0 0.0 0.03 0.00 1.65 92 1016.2
20260902163721 16 203 0.0 0.0 0.03 0.00 1.65 93 1016.2
20260902162641 16 293 3.2 3.2 0.00 0.00 1.63 94 1016.2
20260902161607 16 203 6.4 6.4 0.00 0.00 1.63 95 1016.0
20260902160526 16 270 1.6 1.6 0.00 0.00 1.63 96 1016.0
20260902160009 16 248 0.0 0.0 0.00 0.00 1.63 96 1016.0
20260902155451 15 270 0.0 0.0 0.00 0.00 1.63 96 1016.0
20260902154931 15 248 0.0 0.0 0.00 0.00 1.63 96 1016.2
20260902154411 15 270 3.2 3.2 0.03 0.00 1.63 96 1016.2
20260902153336 15 248 0.0 0.0 0.05 0.00 1.63 96 1016.0
20260902152816 15 158 0.0 0.0 0.05 0.00 1.63 96 1016.0
20260902152256 15 180 0.0 0.0 0.05 0.00 1.63 96 1016.0
20260902151221 15 248 0.0 0.0 0.05 0.00 1.63 96 1015.8
20260902150701 15 248 3.2 3.2 0.05 0.00 1.63 96 1015.8
20260902145621 15 248 0.0 0.0 0.08 0.00 1.63 96 1016.0
20260902144546 15 248 0.0 0.0 0.13 0.00 1.60 96 1015.8
20260902144026 15 180 1.6 1.6 0.18 0.00 1.60 96 1015.7
20260902142431 15 203 0.0 0.0 0.25 0.00 1.57 96 1015.5
20260902141911 15 293 3.2 3.2 0.36 0.00 1.57 96 1015.5
20260902141351 15 270 0.0 0.0 0.38 0.00 1.57 96 1015.2
20260902140316 15 203 0.0 0.0 0.48 0.00 1.57 96 1015.2
20260902135756 15 248 0.0 0.0 0.48 0.00 1.55 96 1015.2
20260902135236 15 225 0.0 0.0 0.48 0.00 1.50 96 1015.1
20260902134721 15 135 0.0 0.0 0.56 0.00 1.47 96 1015.1
20260902134201 15 158 0.0 0.0 0.53 0.00 1.42 96 1015.2
20260902133641 14 113 0.0 0.0 0.48 0.00 1.37 95 1015.2
20260902133121 14 90 0.0 0.0 0.53 0.00 1.37 95 1015.2
20260902132606 14 45 0.0 0.0 0.58 0.00 1.35 95 1015.1
20260902132046 14 45 0.0 0.0 0.56 0.00 1.22 95 1015.1
20260902131046 14 270 0.0 0.0 0.61 0.00 1.17 95 1015.0
20260902130526 14 90 0.0 0.0 0.64 0.00 1.12 95 1014.8
20260902130006 14 293 0.0 0.0 0.66 0.00 1.07 95 1014.8
20260902125451 14 68 0.0 0.0 0.71 0.00 1.02 95 1014.8
20260902124931 14 90 0.0 0.0 0.69 0.00 0.94 95 1014.8
20260902124411 14 203 0.0 0.0 0.66 0.00 0.91 95 1014.8
20260902123851 14 338 0.0 0.0 0.66 0.00 0.89 95 1014.8
20260902123336 15 90 0.0 0.0 0.61 0.00 0.84 95 1014.8
20260902122816 14 135 0.0 0.0 0.56 0.00 0.76 95 1014.9
20260902122256 14 270 0.0 0.0 0.51 0.00 0.71 95 1014.9
20260902121736 14 113 0.0 0.0 0.43 0.00 0.64 95 1014.9
20260902121221 14 45 0.0 0.0 0.36 0.00 0.56 95 1014.9
20260902120201 14 23 0.0 0.0 0.25 0.00 0.41 95 1014.9
20260902115641 14 293 0.0 0.0 0.20 0.00 0.36 95 1014.9
20260902115121 14 113 0.0 0.0 0.13 0.00 0.25 95 1014.8
20260902114601 14 68 0.0 0.0 0.15 0.00 0.25 95 1014.8
20260902114046 14 45 0.0 0.0 0.13 0.00 0.23 95 1015.0
20260902113546 14 180 0.0 0.0 0.15 0.00 0.23 95 1015.0
20260902113026 14 90 0.0 0.0 0.13 0.00 0.20 95 1015.0
20260902111947 14 180 0.0 0.0 0.13 0.00 0.20 95 1015.0
20260902111431 14 158 0.0 0.0 0.15 0.00 0.20 95 1014.8
20260902110911 14 135 0.0 0.0 0.13 0.00 0.18 95 1014.8
20260902110351 14 113 0.0 0.0 0.10 0.00 0.15 95 1014.9
20260902105832 14 113 3.2 3.2 0.10 0.00 0.15 95 1014.9
20260902104756 14 45 0.0 0.0 0.05 0.00 0.10 95 1015.0
20260902104236 14 45 3.2 3.2 0.10 0.00 0.10 95 1015.0
20260902103716 14 23 4.8 4.8 0.08 0.00 0.08 94 1015.1
20260902102641 15 90 0.0 0.0 0.08 0.00 0.08 94 1015.2
20260902102121 15 113 0.0 0.0 0.08 0.00 0.08 94 1015.2
20260902101602 15 113 0.0 0.0 0.05 0.00 0.05 94 1015.2
20260902101046 15 270 0.0 0.0 0.05 0.00 0.05 94 1015.2
20260902100526 15 90 0.0 0.0 0.05 0.00 0.05 94 1015.3
20260902100007 15 90 0.0 0.0 0.05 0.00 0.05 94 1015.3
20260902095447 15 90 0.0 0.0 0.05 0.00 0.05 93 1015.3
20260902094931 15 113 0.0 0.0 0.05 0.00 0.05 93 1015.3
20260902094412 15 135 0.0 0.0 0.00 0.00 0.00 93 1015.3
20260902093332 15 158 0.0 0.0 0.00 0.00 0.00 93 1015.3
20260902092816 15 225 0.0 0.0 0.00 0.00 0.00 93 1015.5
20260902092256 15 225 0.0 0.0 0.00 0.00 0.00 93 1015.5
20260902091756 15 270 0.0 0.0 0.00 0.00 0.00 93 1015.5
20260902091237 15 203 0.0 0.0 0.00 0.00 0.00 93 1015.5
20260902090716 15 158 0.0 0.0 0.00 0.00 0.00 93 1015.5
20260902090201 15 315 0.0 0.0 0.00 0.00 0.00 93 1015.6
20260902085642 15 248 1.6 1.6 0.00 0.00 0.00 93 1015.6
20260902085121 15 248 4.8 4.8 0.00 0.00 0.00 93 1015.7
20260902084601 15 270 0.0 0.0 0.00 0.00 0.00 93 1015.7
20260902084047 15 248 0.0 0.0 0.00 0.00 0.00 93 1015.7
20260902083526 15 270 3.2 3.2 0.00 0.00 0.00 93 1015.7
20260902083006 15 248 0.0 0.0 0.00 0.00 0.00 92 1015.8
20260902081932 15 270 6.4 6.4 0.00 0.00 0.00 92 1015.8
20260902081412 15 270 4.8 4.8 0.00 0.00 0.00 92 1015.7
20260902080851 15 248 3.2 3.2 0.00 0.00 0.00 92 1015.7
20260902075831 15 225 0.0 0.0 0.00 0.00 0.00 92 1015.7
20260902075317 15 203 0.0 0.0 0.00 0.00 0.00 92 1015.7
20260902074756 15 248 1.6 1.6 0.00 0.00 0.00 92 1015.7
20260902073716 15 225 0.0 0.0 0.00 0.00 0.00 92 1015.7
20260902072642 15 248 0.0 0.0 0.00 0.00 0.00 93 1015.6
20260902072121 15 225 0.0 0.0 0.00 0.00 0.00 93 1015.6
20260902071622 15 248 1.6 1.6 0.00 0.00 0.00 93 1015.7
20260902071046 15 203 0.0 0.0 0.00 0.00 0.00 93 1015.7
20260902070547 15 248 0.0 0.0 0.00 0.00 0.00 93 1015.7
20260902065506 14 203 0.0 0.0 0.00 0.00 0.05 93 1015.7
20260902064431 14 203 0.0 0.0 0.00 0.00 0.05 93 1015.6
20260902063912 14 203 0.0 0.0 0.00 0.00 0.05 93 1015.5
20260902063351 14 248 1.6 1.6 0.00 0.00 0.05 93 1015.5
20260902062832 14 248 0.0 0.0 0.00 0.00 0.05 93 1015.5
20260902060716 13 225 3.2 3.2 0.00 0.00 0.05 93 1015.5
20260902060202 13 248 4.8 4.8 0.00 0.00 0.05 93 1015.6
20260902055641 13 225 4.8 4.8 0.00 0.00 0.05 93 1015.6
20260902055121 13 225 0.0 0.0 0.00 0.00 0.05 92 1015.7
20260902054547 13 248 0.0 0.0 0.00 0.00 0.05 91 1015.7
20260902054046 13 225 0.0 0.0 0.00 0.00 0.05 90 1015.7
20260902053527 13 270 0.0 0.0 0.00 0.00 0.05 89 1015.7
20260902053007 13 225 0.0 0.0 0.00 0.00 0.05 89 1015.6
20260902052447 13 225 0.0 0.0 0.00 0.00 0.05 89 1015.6
20260902051931 13 248 0.0 0.0 0.00 0.00 0.05 89 1015.6
20260902051412 13 225 0.0 0.0 0.00 0.00 0.05 89 1015.6
20260902050852 13 203 0.0 0.0 0.00 0.00 0.05 89 1015.6
20260902050332 14 225 0.0 0.0 0.00 0.00 0.05 89 1015.5
20260902045817 14 270 0.0 0.0 0.00 0.00 0.05 89 1015.5
20260902045257 14 225 0.0 0.0 0.00 0.00 0.05 89 1015.5
20260902044737 15 225 3.2 3.2 0.00 0.00 0.05 89 1015.5
20260902044217 15 225 4.8 4.8 0.00 0.00 0.05 89 1015.5
20260902043702 15 225 6.4 6.4 0.00 0.00 0.05 89 1015.5
20260902043142 15 203 4.8 4.8 0.00 0.00 0.05 89 1015.5
20260902042622 15 203 6.4 6.4 0.00 0.00 0.05 89 1015.5
20260902042102 15 248 6.4 6.4 0.00 0.00 0.05 89 1015.5
20260902041547 15 225 4.8 4.8 0.00 0.00 0.05 89 1015.5
20260902040507 15 248 3.2 3.2 0.00 0.00 0.05 88 1015.3
20260902035432 15 248 4.8 4.8 0.00 0.00 0.05 87 1015.2
20260902034352 15 225 0.0 0.0 0.00 0.00 0.05 87 1015.2
20260902033832 15 248 0.0 0.0 0.00 0.00 0.05 87 1015.2
20260902033317 15 225 0.0 0.0 0.00 0.00 0.05 86 1015.2
20260902032812 15 225 0.0 0.0 0.00 0.00 0.05 86 1015.2
20260902032257 15 225 0.0 0.0 0.00 0.00 0.05 85 1015.2
20260902030702 15 270 3.2 3.2 0.00 0.00 0.05 85 1015.2
20260902030142 15 203 0.0 0.0 0.00 0.00 0.05 84 1015.1
20260902025622 15 248 1.6 1.6 0.00 0.00 0.05 84 1015.1
20260902025102 15 203 1.6 1.6 0.00 0.00 0.05 84 1014.9
20260902024547 15 248 0.0 0.0 0.00 0.00 0.05 83 1014.9
20260902024042 15 270 1.6 1.6 0.00 0.00 0.05 83 1015.0